Theta_e
296 291 292 294 306 314 321 324 323 319 326 327 331 341 341 346 354 355 356 358 358 363 362 361 359 358 358 359 359 360 360 361
295 292 296 301 311 320 321 324 325 323 319 336 344 342 344 353 353 352 352 357 360 363 362 362 359 358 358 359 360 361 360 360
292 292 297 301 315 319 314 320 323 323 321 332 341 346 350 352 351 348 351 354 360 363 362 362 359 359 359 360 360 361 360 360
291 293 299 305 316 317 315 318 320 320 326 332 342 344 347 350 349 351 351 354 358 362 362 361 360 360 360 360 360 360 360 360
291 293 297 302 317 316 315 316 318 328 323 330 337 343 346 347 349 351 352 353 357 357 359 360 360 360 360 359 359 359 359 358
292 294 296 305 316 317 317 316 324 338 326 326 334 343 341 342 344 347 350 351 353 355 354 355 356 359 359 359 359 358 358 358
294 296 299 308 305 305 320 318 325 335 335 337 340 339 335 336 337 340 345 348 350 352 353 351 352 355 358 359 358 358 357 357
299 301 301 301 300 302 310 319 320 334 339 339 340 335 332 333 334 337 339 342 345 348 348 349 354 352 351 353 353 351 350 350
301 305 306 304 303 303 304 309 322 330 336 338 337 334 331 332 332 335 337 341 342 343 344 345 346 346 346 347 347 347 347 344
300 303 301 303 303 302 303 306 321 330 338 338 336 333 331 330 329 330 334 338 341 341 343 341 345 343 344 344 345 338 334 329
301 301 301 303 303 303 303 307 310 337 339 336 336 334 333 332 330 330 332 336 339 339 340 340 342 341 344 344 336 326 328 326
298 298 299 300 302 303 306 307 308 336 336 337 336 335 334 331 330 332 332 335 338 338 339 341 340 341 343 342 324 325 324 323
294 296 297 300 299 301 309 306 316 331 335 337 338 338 336 335 333 335 333 335 337 339 342 342 339 339 337 328 323 323 322 321
292 295 298 299 292 301 309 311 322 329 334 336 337 338 340 340 338 338 336 336 339 343 342 338 335 333 329 323 321 320 320 320
290 294 296 296 292 301 308 316 320 326 332 335 336 339 341 343 341 339 338 339 341 339 338 334 328 328 324 321 320 319 320 319
287 291 293 291 292 298 308 309 308 312 324 333 333 335 342 343 343 341 341 341 339 335 331 324 324 322 320 319 319 318 318 319
289 293 291 291 291 295 304 305 309 312 314 318 325 332 334 341 341 336 336 337 333 330 324 323 322 321 319 318 317 316 317 319
289 292 291 289 290 293 296 301 308 311 313 317 319 331 335 337 332 332 332 334 331 330 323 323 325 323 320 319 317 316 317 318
288 291 290 288 287 291 296 299 302 309 313 315 317 325 334 330 328 330 331 332 330 329 323 322 322 317 317 317 316 315 315 315
290 287 283 289 281 287 292 295 298 304 308 311 315 323 332 331 327 327 330 333 330 325 323 321 320 320 320 319 315 314 314 315
Wind_Speed
5 3 5 5 4 6 4 5 5 5 1 4 3 2 9 6 10 9 9 7 8 14 15 15 16 16 15 14 14 12 12 11
5 5 6 5 6 7 5 5 5 4 4 3 3 7 6 13 13 11 8 9 10 13 13 14 16 15 14 14 13 12 12 11
1 5 6 6 6 4 4 6 6 6 4 3 4 10 13 12 13 12 10 11 9 13 13 14 16 15 13 12 11 10 10 10
4 5 5 7 4 1 4 5 8 7 5 4 7 11 11 10 10 10 13 13 7 12 12 13 14 14 13 12 11 10 9 8
5 3 4 6 7 4 3 2 5 5 5 1 1 9 10 10 9 11 13 12 6 6 11 13 12 12 12 11 10 9 8 7
4 6 6 3 3 4 3 6 4 6 7 5 6 14 9 7 8 10 10 12 12 7 6 6 7 13 12 11 10 9 8 6
7 7 5 2 2 3 1 2 4 7 6 6 19 18 8 7 4 5 9 11 10 11 10 6 6 8 10 12 10 8 6 6
8 5 3 3 4 3 2 4 5 7 6 16 17 17 14 10 9 10 10 8 10 10 8 7 6 5 5 5 4 4 4 4
5 4 3 3 5 3 6 2 7 12 11 17 15 12 13 10 12 13 10 7 7 6 6 6 5 4 3 2 3 3 5 4
4 4 2 6 2 6 5 12 7 7 12 14 18 15 13 11 9 8 8 9 7 7 8 6 5 5 5 4 3 3 4 6
8 8 8 2 9 8 9 12 3 11 16 17 19 19 14 12 10 9 10 9 10 8 8 6 6 4 5 5 4 4 4 5
6 8 5 5 7 8 12 6 4 13 18 19 21 22 14 15 14 13 12 12 11 11 8 7 6 6 5 5 5 4 4 4
4 5 8 8 6 13 25 6 7 11 12 14 18 21 23 17 15 15 13 12 12 10 8 9 7 5 4 5 5 5 4 5
6 2 6 9 10 8 17 12 8 9 11 13 14 23 17 15 15 14 13 13 12 10 10 7 8 6 5 5 4 5 5 4
7 3 3 6 5 5 3 13 3 6 10 15 14 13 13 16 17 14 12 13 13 10 11 9 7 6 6 6 4 4 5 4
4 3 4 5 6 7 2 9 9 3 6 12 13 18 18 17 17 13 9 11 11 10 9 8 6 5 4 4 3 3 4 4
4 5 2 7 5 10 9 6 16 16 9 8 16 15 10 11 12 12 11 14 12 12 10 10 7 7 5 5 3 2 3 6
6 5 6 5 9 10 8 11 17 26 30 16 10 10 11 14 16 18 17 16 15 15 14 11 9 6 5 5 3 1 3 5
9 5 3 3 7 5 8 9 10 18 24 14 18 17 15 16 19 17 20 21 19 17 16 12 9 7 5 5 4 2 2 3
6 2 5 4 7 6 7 9 8 15 14 19 17 18 18 20 18 20 22 18 17 17 17 11 13 11 15 12 8 5 5 4
Wind_Direction
92 109 187 226 207 180 229 220 196 142 341 163 177 154 155 135 125 120 131 135 153 159 158 156 153 149 144 140 138 132 128 124
92 224 248 218 267 180 213 218 182 144 127 94 346 151 148 131 129 120 140 149 165 161 156 156 155 152 147 145 144 142 140 134
104 266 265 249 258 177 279 182 159 164 183 104 88 101 123 133 132 137 152 168 164 161 159 158 156 155 148 146 146 146 145 142
210 246 261 268 221 225 247 303 156 168 128 146 131 122 142 145 131 144 158 166 155 158 156 154 155 152 150 148 146 148 148 144
179 231 298 253 133 203 254 320 297 117 132 73 162 129 142 137 118 150 157 162 145 149 156 155 153 149 145 146 149 147 140 143
210 185 242 290 213 122 225 281 296 112 196 190 188 134 117 101 109 151 160 163 165 152 145 141 147 150 149 150 146 146 146 142
193 169 237 346 33 312 209 266 237 197 151 183 139 121 104 111 99 142 163 165 168 167 165 148 141 158 151 153 155 147 142 141
201 199 167 219 242 270 239 239 221 192 96 121 136 135 148 174 181 187 176 168 167 171 161 145 152 138 138 149 129 129 126 114
249 227 223 205 251 233 292 233 220 191 160 141 138 142 161 197 191 201 179 171 165 150 152 152 137 135 126 128 123 122 116 100
212 211 205 263 224 287 239 259 224 199 146 144 158 162 179 195 196 213 180 176 170 159 163 163 138 145 139 132 125 114 110 115
226 235 254 242 252 243 255 266 313 142 156 168 167 165 178 185 200 195 191 180 176 166 168 158 147 141 138 139 126 125 119 124
262 256 231 203 256 154 261 240 255 165 178 171 175 171 176 182 191 196 188 185 175 180 169 150 149 146 148 133 130 126 127 129
238 245 212 179 255 200 243 242 208 195 188 192 187 166 192 181 188 196 197 180 177 176 158 157 147 133 130 137 137 133 127 124
279 6 245 155 250 225 250 212 211 204 180 189 188 192 182 181 188 195 186 179 170 175 167 152 149 141 134 139 133 135 133 126
308 245 258 173 256 298 218 167 345 274 196 183 190 198 192 185 186 185 184 176 169 160 166 160 138 137 133 139 135 140 128 129
221 285 45 313 272 313 297 127 168 200 247 201 188 199 197 189 183 172 168 179 175 159 151 141 127 116 101 110 117 140 137 135
248 240 251 252 253 270 238 242 198 222 205 224 200 205 184 165 166 160 171 175 174 163 160 149 151 148 145 160 151 124 153 144
273 260 173 269 270 259 216 223 212 206 235 203 211 176 167 166 166 178 170 179 180 178 168 168 163 158 140 142 128 135 160 150
232 297 252 277 293 233 265 213 217 224 218 200 193 197 175 174 179 180 182 186 181 180 169 166 151 118 93 76 73 120 166 135
248 129 254 148 280 253 257 234 222 219 217 214 199 204 191 185 180 186 197 183 179 175 169 161 157 162 164 173 168 191 163 148